Location: Coed Ely
(51.5661°N, 3.4150°W)
Time: 23:47:31
(UTC+00:00)

Cosmos 1048 Rocket - Pass Details

Date: 28 January 2021
Orbit: 743 x 791 km, 74.0° (Epoch: 01 March)

Event Time Altitude Azimuth Distance (km) Brightness Sun altitude
Rises 18:37:38 0° 337° (NNW) 3,198 7.4 -15.7°
Reaches altitude 10° 18:40:03 10° 341° (NNW) 2,272 6.6 -16.0°
Maximum altitude 18:45:06 56° 60° (ENE) 893 4.0 -16.8°
Enters shadow 18:49:38 13° 137° (SE) 2,080 5.9 -17.5°
